Flag for U.S.A. Weather past 2 weeks in Raleigh, North Carolina, U.S.A.

Now
65 °F

Passing clouds.


Feels Like: 65 °F
Forecast: 64 / 86 °F
Wind: No wind

Location: Raleigh-Durham International Airport

Current Time: May 26, 2015 at 6:44:55 AM

Latest Report: May 26, 2015 at 5:51 AM


Visibility: 10 mi

Pressure: 30.27 "Hg

Humidity: 91%

Dew point: 62 °F

Location of RaleighLocation

Historic Weather in Raleigh — Graph

°F

Raleigh temperature yesterday

Maximum temperature yesterday: 84 °F (at 4:51 PM)
Minimum temperature yesterday: 58 °F (at 5:51 AM)
Average temperature yesterday: 73 °F

Past Weeks' High & Low Weather Summary

 TemperatureHumidityPressure
High90 °F (May 18, 2:51 PM)97% (May 19, 11:51 PM)30.45 "Hg (May 19, 11:51 PM)
Low49 °F (May 23, 5:51 AM)27% (May 13, 4:51 PM)29.84 "Hg (May 21, 12:56 PM)
Average71 °F66%30.16 "Hg
* Reported May 11 5:51 AM — May 26 5:51 AM, Raleigh, Weather by CustomWeather, © 2015

Note: Actual official high and low records may vary slightly from our data, if they occured in-between our weather recording intervals... More about our weather records

Advertising

Raleigh weather history for previous 24 hours

 ConditionsComfort  
Time TempWeatherWind HumidityBarometerVisibility
5:51 AM
Tue, May 26
65 °FPassing clouds.No wind91%30.27 "Hg10 mi
4:51 AM67 °FPassing clouds.5 mph87%30.25 "Hg10 mi
3:51 AM67 °FPassing clouds.9 mph85%30.25 "Hg10 mi
2:51 AM68 °FPassing clouds.8 mph82%30.25 "Hg10 mi
1:51 AM68 °FPassing clouds.8 mph78%30.26 "Hg10 mi
12:51 AM70 °FPassing clouds.9 mph71%30.26 "Hg10 mi
11:51 PM
Mon, May 25
71 °FPassing clouds.8 mph68%30.27 "Hg10 mi
10:51 PM72 °FPassing clouds.8 mph64%30.27 "Hg10 mi
9:51 PM74 °FPassing clouds.5 mph52%30.25 "Hg10 mi
8:51 PM75 °FScattered clouds.3 mph50%30.24 "Hg10 mi
7:51 PM78 °FScattered clouds.6 mph43%30.24 "Hg10 mi
6:51 PM81 °FScattered clouds.8 mph38%30.24 "Hg10 mi
5:51 PM83 °FScattered clouds.9 mph38%30.25 "Hg10 mi
4:51 PM84 °FScattered clouds.8 mph38%30.25 "Hg10 mi
3:51 PM83 °FScattered clouds.7 mph40%30.26 "Hg10 mi
2:51 PM83 °FScattered clouds.8 mph43%30.27 "Hg10 mi
1:51 PM82 °FScattered clouds.9 mph41%30.29 "Hg10 mi
12:51 PM80 °FScattered clouds.9 mph42%30.31 "Hg10 mi
11:51 AM78 °FScattered clouds.10 mph48%30.33 "Hg10 mi
10:51 AM76 °FScattered clouds.9 mph58%30.34 "Hg10 mi
9:51 AM74 °FPartly sunny.9 mph62%30.34 "Hg10 mi
8:51 AM71 °FPartly sunny.7 mph68%30.35 "Hg10 mi
7:51 AM66 °FPartly sunny.6 mph78%30.33 "Hg10 mi
6:51 AM60 °FPassing clouds.No wind90%30.34 "Hg10 mi
Weather by CustomWeather, © 2015

See weather overviewHow to use our weather pages